CZ-6A DEB, 54269

Orbit data source: Space-Track

CZ-6A DEB, 54269 is space debris in SSO originally from a launch on Fri, 11 Nov 2022 UTC launched from the Taiyaun Space Center, China (TSC). Debris objects in space refer to the collection of defunct objects orbiting the Earth. Examples of debris include non-operational satellites, rocket bodies, and fragments generated from explosions, collisions, or faulty payload assembly.

Loading next visibility...
Identifier
54269, 2022-151L
Orbit
SSO
Country
Flag of CNCN / PRC
Related business
Manufacturer
SAST
Mission
Spacecraft
Bus & Motor
Unknown
Mass
Unknown
Launch date (UTC)
2022-11-11 (3 years ago)
Launch vehicle
Unknown
Launch site
Taiyaun Space Center, China (TSC)
Object type
Payload
Rocket body
Debris
Shape & HBR
Unknown shape, 0.4 m
Radar Cross Section
Medium (>0.1 m² and <1 m²)

Expand to show TLE details & history
Last TLE update: 22 hours ago

TLE from 22 hours ago
0 CZ-6A DEB
1 54269U 22151L   25353.41669226  .00000240  00000-0  77220-4 0  9999
2 54269  98.6399  37.8509 0131923 139.8784 221.2239 14.43541675162856
Epoch: 2025-12-19T10:00Z
TLE epoch observation values (Epoch: 2025-12-19T10:00:02.211Z)
Latitude
0.00002°
Longitude
159.58353°
Altitude
821.013 km
Speed
7.405 km/s
True Right ascension
02h 31m 24s
True Declination
0° 00' 00"
Sunlit
Object was in full shadow at epoch
Visualization orbit readout
Latitude
Unknown
Longitude
Unknown
Altitude
Unknown
Speed
Unknown
Apparent Right ascension
Unknown
Apparent Declination
Unknown
Sunlit
N/A
Visualization observer readout
Local Sidereal Time
06:44:00
Azimuth
Unknown
Elevation
Unknown
Doppler factor
Unknown
Orbital elements
Apogee altitude
837.9 km
Perigee altitude
649.987 km
Semi-major axis
7,122.081 km
Eccentricity
0.01319
Inclination
98.6399°
RAAN
37.8509°
Arg. of periapsis
139.8784°
True anomaly
220.23993°
Mean anomaly
221.2239°
Eccentric anomaly
220.7307°
Mean motion
3.61104 °/min
Orbital period
99.69 mins
BSTAR
0.00007722
Loading maneuver chart data...
Computing Atmospheric mass density...
Loading historical data...
Loading historical data...
Loading historical data...
Loading historical data...
Loading historical data...
Loading historical data...
Loading historical data...

Documentation

Showing up to 5 results
|